Regional Weather Roundup
Issued by NWS

Home | Current Version | Previous Version | Text Only | Print | Product List | Glossary On
Versions: 1 2 3 4 5 6 7 8 9 10 11 12 13 14 15 16 17 18
000
ASPQ40 PGUM 260013
RWRPQ
WEATHER ROUNDUP FOR THE MARIANAS AND MICRONESIA
NATIONAL WEATHER SERVICE TIYAN GU
1000 AM CHST SUN FEB 26 2017

GUZ001>004-260100-
MARIANA ISLANDS-

CITY           SKY/WX    TMP DP  RH WIND       PRES   REMARKS
GUAM AIRPORT   MOSUNNY   84  75  74 E17G24    29.92S HX  92
ANDERSEN AFB   SUNNY     81  73  78 E20       29.94S
ROTA AIRPORT   MOSUNNY   81  75  83 E14G23    29.94R
TINIAN AP      MOSUNNY   82  73  74 NE20      29.93R
SAIPAN AP      MOSUNNY   82  73  74 E20       29.94R

$$

PMZ161-260100-
REPUBLIC OF PALAU-

CITY           SKY/WX    TMP DP  RH WIND       PRES   REMARKS
KOROR AP       NOT AVBL
KOROR WSO      NOT AVBL

$$

PMZ171>174-260100-
FEDERATED STATES OF MICRONESIA-

CITY           SKY/WX    TMP DP  RH WIND       PRES   REMARKS
YAP AIRPORT    CLOUDY    82  81  94 E12       29.82R HX  95
CHUUK AP       NOT AVBL
POHNPEI AP     NOT AVBL
POHNPEI WSO    CLOUDY    86  79  79 N12       29.81F HX  99
KOSRAE AP      NOT AVBL

$$

PMZ181-260100-
REPUBLIC OF THE MARSHALL ISLANDS-

CITY           SKY/WX    TMP DP  RH WIND       PRES   REMARKS
KWAJALEIN AP   MOSUNNY   86  73  66 NE20G26   29.81F HX  93
MAJURO AP      NOT AVBL
MAJURO WSO     PTSUNNY   86  77  74 NE14      29.78F HX  97

$$





USA.gov is the U.S. government's official web portal to all federal, state and local government web resources and services.